Location: Meanaryar
(48.4161°N, 4.7315°W)
Time: 17:23:42
(UTC+00:00)

MetOp-A - Pass Details

Date: 18 September 2020
Orbit: 820 x 821 km, 98.5° (Epoch: 29 October)

Event Time Altitude Azimuth Distance (km) Brightness Sun altitude
Exits shadow 20:03:45 14° 160° (SSE) 2,138 5.9 -16.9°
Maximum altitude 20:08:24 83° 73° (ENE) 833 4.1 -17.6°
Drops below altitude 10° 20:13:48 10° 347° (NNW) 2,430 7.1 -18.4°
Sets 20:16:09 0° 347° (NNW) 3,367 7.9 -18.7°
